Location: Castro Valley
(37.6940°N, 122.0850°W)
Time: 22:28:49
(UTC-08:00)

Amateur Radio Satellites - All Passes

Search period start: 10 February 2016 21:58
Search period end: 11 February 2016 21:58
Location: Castro Valley, 37.6940°N, 122.0850°W

Satellite Date Start Highest point End Downlink Frequencies (MHz)
Time Altitude Azimuth
ISS 10 Feb 22:00:44 22:03:58 61° 38° (NE) 22:07:10 145.825
ANTELSAT 10 Feb 22:04:17 22:08:17 34° 98° (E) 22:12:18 437.575/2403.000
TIGRISAT 10 Feb 22:10:43 22:14:47 38° 99° (E) 22:18:55 435.000
AIST 1 10 Feb 22:22:53 22:26:48 33° 269° (W) 22:30:38
HUMSAT D 10 Feb 22:42:22 22:45:21 19° 266° (W) 22:48:19 437.325/437.525
VELOX 1 10 Feb 22:47:02 22:51:30 80° 75° (ENE) 22:55:59 145.980
PHONESAT 2.4 10 Feb 22:51:41 22:52:13 10° 143° (SE) 22:52:46 2401.200-2431.200
BUGSAT 1 10 Feb 22:53:43 22:55:00 11° 92° (E) 22:56:15 437.445
POLYITAN 1 10 Feb 22:55:27 22:59:06 29° 97° (E) 23:02:46 437.675
UNISAT 6 10 Feb 22:55:39 22:59:57 60° 285° (WNW) 23:04:18 437.425
QB50P2 10 Feb 22:56:00 22:59:43 30° 97° (E) 23:03:26 145.880/145.840
50 SAT 10 Feb 23:00:08 23:03:43 50° 260° (W) 23:07:21 437.505
AISAT 10 Feb 23:04:00 23:08:26 63° 259° (W) 23:12:52 437.250
UKube-1 10 Feb 23:10:36 23:14:52 58° 259° (W) 23:19:09 .
SPROUT 10 Feb 23:18:01 23:22:09 48° 74° (ENE) 23:26:17 437.525
CUBEBUG 1 10 Feb 23:20:28 23:24:46 51° 260° (W) 23:29:07 437.445
TISAT 1 10 Feb 23:23:44 23:26:51 20° 68° (ENE) 23:29:58 437.305
DX 1 10 Feb 23:25:05 23:29:04 34° 262° (W) 23:33:04 434.975-435.025
POPSAT HIP 1 10 Feb 23:25:06 23:29:17 64° 101° (E) 23:33:27 437.405
NANOSAT C BR1 10 Feb 23:29:04 23:33:15 71° 102° (ESE) 23:37:25 145.865
DUCHIFAT 1 10 Feb 23:29:58 23:34:08 69° 101° (E) 23:38:18 145.980
ESTCUBE 1 10 Feb 23:31:06 23:35:04 30° 263° (W) 23:39:03 437.505/2401.250
QB50P1 10 Feb 23:37:37 23:41:50 87° 282° (WNW) 23:46:02 145.935-145.965
ISS 10 Feb 23:38:53 23:40:00 11° 233° (SW) 23:41:08 145.825
ANTELSAT 10 Feb 23:41:37 23:44:45 20° 292° (WNW) 23:47:56 437.575/2403.000
TIGRISAT 10 Feb 23:48:19 23:51:11 18° 293° (WNW) 23:54:06 435.000
SWISSCUBE 10 Feb 23:59:27 00:00:44 11° 61° (ENE) 00:02:01 437.505
CUSAT 1 11 Feb 00:06:54 00:12:07 19° 82° (E) 00:17:23 437.405
Oscar 19 11 Feb 00:17:18 00:19:06 12° 90° (E) 00:20:54 437.125/150
PHONESAT 2.4 11 Feb 00:25:48 00:29:00 53° 157° (SSE) 00:32:13 2401.200-2431.200
BUGSAT 1 11 Feb 00:26:46 00:30:39 47° 286° (WNW) 00:34:29 437.445
POLYITAN 1 11 Feb 00:31:36 00:34:45 21° 292° (WNW) 00:37:54 437.675
QB50P2 11 Feb 00:32:15 00:35:20 20° 292° (WNW) 00:38:25 145.880/145.840
ITUPSAT 1 11 Feb 00:34:11 00:37:53 23° 67° (ENE) 00:41:37 437.325
BEESAT 11 Feb 00:41:29 00:45:29 28° 68° (ENE) 00:49:30 436.000
DANDE 11 Feb 00:49:16 00:55:12 24° 83° (E) 01:01:30 436.750
SPROUT 11 Feb 00:56:25 00:58:22 13° 268° (W) 01:00:19 437.525
BEESAT 3 11 Feb 00:57:24 01:00:22 20° 49° (NE) 01:03:18 437.485
Gurwin Techsat 1B 11 Feb 00:58:31 00:59:52 11° 90° (E) 01:01:14 435.225
TISAT 1 11 Feb 00:58:35 01:02:18 30° 263° (W) 01:06:04 437.305
POPSAT HIP 1 11 Feb 01:04:05 01:04:31 10° 296° (WNW) 01:04:56 437.405
JAS-2 11 Feb 01:08:20 01:12:59 27° 94° (E) 01:17:22 435.910
BEESAT 2 11 Feb 01:23:39 01:26:56 24° 51° (NE) 01:30:11 435.950
ITAMSAT 1 11 Feb 01:29:25 01:30:37 11° 90° (E) 01:31:50 435.822/435.867
SWISSCUBE 11 Feb 01:33:06 01:37:51 77° 257° (WSW) 01:42:39 437.505
CUSAT 1 11 Feb 01:45:31 01:53:28 85° 279° (W) 02:01:34 437.405
Cosmos 2491 11 Feb 01:49:10 01:57:42 54° 78° (ENE) 02:06:14 435.465 / 435.565
Oscar 19 11 Feb 01:53:47 01:58:54 71° 286° (WNW) 02:03:59 437.125/150
KKS-1 11 Feb 02:01:04 02:04:40 24° 68° (ENE) 02:08:17 437.445
PHONESAT 2.4 11 Feb 02:03:04 02:06:17 54° 353° (N) 02:09:31 2401.200-2431.200
MOZHAYETS 4 11 Feb 02:07:04 02:07:47 10° 62° (ENE) 02:08:29
ITUPSAT 1 11 Feb 02:11:11 02:15:31 34° 262° (W) 02:19:52 437.325
AO-7 11 Feb 02:15:13 02:18:03 12° 89° (E) 02:20:52 29.400- 29.500
BEESAT 11 Feb 02:19:07 02:23:11 28° 264° (W) 02:27:16 436.000
DANDE 11 Feb 02:29:36 02:37:17 71° 281° (W) 02:45:49 436.750
BEESAT 3 11 Feb 02:34:37 02:38:11 33° 246° (WSW) 02:41:43 437.485
Gurwin Techsat 1B 11 Feb 02:35:02 02:40:23 80° 285° (WNW) 02:45:41 435.225
YUBILEINY 11 Feb 02:35:50 02:44:07 49° 89° (E) 02:52:28 435.215
JAS-2 11 Feb 02:53:14 02:58:07 32° 293° (WNW) 03:02:42 435.910
BEESAT 2 11 Feb 03:01:24 03:04:47 27° 247° (WSW) 03:08:09 435.950
ITAMSAT 1 11 Feb 03:05:23 03:10:38 79° 285° (WNW) 03:15:51 435.822/435.867
SO-50 11 Feb 03:06:23 03:07:37 11° 106° (ESE) 03:08:51 436.795
STARS 11 Feb 03:15:52 03:20:17 89° 80° (E) 03:24:42 437.465
Cosmos 2504 11 Feb 03:21:58 03:27:32 19° 79° (ENE) 03:33:13 435.465 / 435.565
HORYU 2 11 Feb 03:23:09 03:24:06 11° 91° (E) 03:25:04 437.375
AIST 2 11 Feb 03:28:42 03:32:44 51° 56° (ENE) 03:36:44 435.215
CUSAT 1 11 Feb 03:31:40 03:36:46 18° 296° (WNW) 03:41:51 437.405
KKS-1 11 Feb 03:37:17 03:41:06 28° 263° (W) 03:44:57 437.445
MOZHAYETS 4 11 Feb 03:39:44 03:44:17 75° 258° (WSW) 03:48:53
PHONESAT 2.4 11 Feb 03:40:32 03:43:47 59° 10° (N) 03:47:01 2401.200-2431.200
Cosmos 2491 11 Feb 03:46:47 03:54:02 30° 276° (W) 04:01:18 435.465 / 435.565
AO-7 11 Feb 04:03:39 04:12:01 75° 106° (ESE) 04:20:17 29.400- 29.500
DANDE 11 Feb 04:17:35 04:21:48 15° 300° (WNW) 04:26:09 436.750
CUBESAT XI-V 11 Feb 04:24:41 04:28:49 32° 70° (ENE) 04:32:58 437.345
YUBILEINY 11 Feb 04:33:20 04:41:05 34° 288° (WNW) 04:48:56 435.215
SO-50 11 Feb 04:42:31 04:47:24 80° 302° (WNW) 04:52:22 436.795
M-CUBED/EXP-1 PRIME 11 Feb 04:43:07 04:46:32 70° 289° (WNW) 04:50:11 437.505
AUBIESAT-1 11 Feb 04:51:37 04:55:05 67° 289° (WNW) 04:58:45 437.475
HORYU 2 11 Feb 04:56:38 05:01:02 62° 286° (WNW) 05:05:26 437.375
AIST 2 11 Feb 05:08:57 05:10:46 13° 252° (WSW) 05:12:33 435.215
Cubesat XI-IV 11 Feb 05:09:48 05:12:03 13° 91° (E) 05:14:19 437.490
Cosmos 2504 11 Feb 05:11:10 05:19:43 82° 277° (W) 05:28:42 435.465 / 435.565
PHONESAT 2.4 11 Feb 05:17:53 05:21:01 42° 206° (SSW) 05:24:07 2401.200-2431.200
STRAND 1 11 Feb 05:39:47 05:44:00 27° 67° (ENE) 05:48:14 437.568
LilacSat-2 11 Feb 05:44:06 05:46:56 20° 95° (E) 05:49:45 437.200
AO-7 11 Feb 05:57:44 06:03:56 24° 304° (NW) 06:10:08 29.400- 29.500
CUBESAT XI-V 11 Feb 06:02:27 06:06:11 23° 265° (W) 06:09:57 437.345
SO-50 11 Feb 06:26:35 06:28:42 13° 320° (NW) 06:30:50 436.795
CUTE-I 11 Feb 06:32:59 06:38:23 84° 102° (ESE) 06:43:47 437.470
BRITE-PL 11 Feb 06:47:06 06:51:45 65° 100° (E) 06:56:02 437.365/2234.400
Cubesat XI-IV 11 Feb 06:47:14 06:52:37 72° 285° (WNW) 06:57:58 437.490
PRISM 11 Feb 06:56:38 07:00:36 45° 73° (ENE) 07:04:37 437.425
Cosmos 2504 11 Feb 07:09:36 07:14:33 16° 297° (WNW) 07:19:36 435.465 / 435.565
LilacSat-2 11 Feb 07:18:08 07:21:11 23° 289° (WNW) 07:24:15 437.200
STRAND 1 11 Feb 07:18:25 07:23:00 33° 263° (W) 07:27:38 437.568
DOVE 4 11 Feb 07:18:54 07:22:38 31° 97° (E) 07:26:20 437.250
O/OREOS (USA 219) 11 Feb 07:21:27 07:25:48 54° 107° (ESE) 07:30:13 437.305
COMPASS 1 11 Feb 07:39:49 07:41:06 11° 91° (E) 07:42:23 437.405
GOMX 1 11 Feb 07:45:13 07:49:30 57° 286° (WNW) 07:53:37 467.674
CUTE 1.7 + AOD 2 11 Feb 07:51:03 07:54:49 29° 96° (E) 07:58:35 437.475
SEEDS 11 Feb 07:54:52 07:58:22 24° 95° (E) 08:01:50 437.485
CINEMA 3 11 Feb 08:01:48 08:05:31 31° 97° (E) 08:09:15 145.822/145.860
GONETS M04 11 Feb 08:01:49 08:09:37 39° 87° (E) 08:17:27
AAUSAT CUBESAT 2 11 Feb 08:05:27 08:08:27 19° 94° (E) 08:11:26 437.432
CUTE-I 11 Feb 08:15:38 08:17:40 12° 300° (WNW) 08:19:43 437.470
Cosmos 2499 11 Feb 08:17:52 08:23:55 21° 80° (E) 08:30:02 435.465 / 435.565
BRITE-PL 11 Feb 08:28:06 08:29:31 11° 299° (WNW) 08:30:55 437.365/2234.400
HO-68 11 Feb 08:28:13 08:35:27 73° 104° (ESE) 08:42:37 435.675
PRISM 11 Feb 08:34:13 08:36:10 13° 268° (W) 08:38:06 437.425
CANX-2 11 Feb 08:36:02 08:40:18 69° 285° (WNW) 08:44:35 2200.000
ZACube-1 11 Feb 08:46:47 08:49:39 17° 94° (E) 08:52:33 437.345
JUGNU 11 Feb 08:47:46 08:50:17 13° 177° (S) 08:52:49 437.505
FUNcube-1 11 Feb 08:54:43 08:57:56 21° 95° (E) 09:01:10 145.935
DOVE 4 11 Feb 08:57:15 09:00:08 18° 293° (WNW) 09:02:59 437.250
ANTELSAT 11 Feb 09:01:55 09:05:22 24° 69° (ENE) 09:08:48 437.575/2403.000
O/OREOS (USA 219) 11 Feb 09:03:07 09:05:34 14° 304° (NW) 09:08:01 437.305
DELFI C3 11 Feb 09:06:44 09:09:43 19° 95° (E) 09:12:40 145.870
TIGRISAT 11 Feb 09:08:03 09:11:39 26° 70° (ENE) 09:15:13 435.000
PCSat 11 Feb 09:09:18 09:12:31 16° 104° (ESE) 09:15:45 145.827
COMPASS 1 11 Feb 09:12:51 09:16:58 53° 286° (WNW) 09:21:04 437.405
AIST 1 11 Feb 09:15:22 09:16:46 11° 84° (E) 09:18:10
Oscar 11 11 Feb 09:24:28 09:28:48 64° 100° (E) 09:33:07 145.826/435.025
CUTE 1.7 + AOD 2 11 Feb 09:27:14 09:30:29 21° 291° (WNW) 09:33:43 437.475
SEEDS 11 Feb 09:30:28 09:33:59 25° 290° (WNW) 09:37:29 437.485
UWE-3 11 Feb 09:31:31 09:35:45 88° 105° (ESE) 09:40:05 435.000/436.395/437.385
CUBEBUG 2 11 Feb 09:34:19 09:38:28 60° 284° (WNW) 09:42:42 437.445
CINEMA 3 11 Feb 09:39:34 09:42:28 19° 292° (WNW) 09:45:22 145.822/145.860
AAUSAT CUBESAT 2 11 Feb 09:40:15 09:43:59 31° 288° (WNW) 09:47:42 437.432
AO-85 11 Feb 09:43:11 09:48:24 65° 117° (ESE) 09:53:52 145.980
POLYITAN 1 11 Feb 09:47:07 09:49:59 18° 68° (ENE) 09:52:53 437.675
RS-15 11 Feb 09:47:33 09:56:18 28° 102° (ESE) 10:05:20 29.354- 29.394
QB50P2 11 Feb 09:47:34 09:50:33 19° 68° (ENE) 09:53:32 145.880/145.840
UNISAT 6 11 Feb 09:52:29 09:56:48 87° 251° (WSW) 10:01:07 437.425
GONETS M04 11 Feb 09:58:14 10:06:17 42° 285° (WNW) 10:14:27
Cosmos 2499 11 Feb 10:07:18 10:16:00 77° 278° (W) 10:24:58 435.465 / 435.565
POPSAT HIP 1 11 Feb 10:15:49 10:19:43 37° 72° (ENE) 10:23:36 437.405
HO-68 11 Feb 10:17:21 10:22:25 21° 301° (WNW) 10:27:29 435.675
NANOSAT C BR1 11 Feb 10:19:23 10:23:20 39° 72° (ENE) 10:27:16 145.865
DUCHIFAT 1 11 Feb 10:20:05 10:23:59 38° 72° (ENE) 10:27:54 145.980
ZACube-1 11 Feb 10:22:11 10:26:02 34° 288° (WNW) 10:29:56 437.345
HUMSAT D 11 Feb 10:26:11 10:30:22 72° 101° (E) 10:34:36 437.325/437.525
SRMSAT 11 Feb 10:27:11 10:29:27 12° 174° (S) 10:31:43 437.500
QB50P1 11 Feb 10:28:02 10:32:09 52° 74° (ENE) 10:36:16 145.935-145.965
FUNcube-1 11 Feb 10:30:30 10:34:10 29° 289° (WNW) 10:37:54 145.935
50 SAT 11 Feb 10:34:20 10:36:47 16° 94° (E) 10:39:15 437.505
JUGNU 11 Feb 10:36:28 10:38:26 12° 187° (S) 10:40:23 437.505
ANTELSAT 11 Feb 10:38:22 10:41:59 26° 264° (W) 10:45:34 437.575/2403.000
VELOX 1 11 Feb 10:40:20 10:43:13 17° 94° (E) 10:46:05 145.980
DELFI C3 11 Feb 10:41:08 10:44:36 28° 289° (WNW) 10:48:04 145.870
TIGRISAT 11 Feb 10:44:52 10:48:18 23° 264° (W) 10:51:43 435.000
AIST 1 11 Feb 10:49:32 10:53:49 53° 279° (W) 10:58:09
PCSat 11 Feb 10:50:00 10:55:20 61° 300° (WNW) 11:00:44 145.827
AISAT 11 Feb 10:56:36 11:00:22 27° 96° (E) 11:04:06 437.250
UKube-1 11 Feb 11:00:06 11:03:42 25° 96° (E) 11:07:16 .
Oscar 11 11 Feb 11:03:11 11:04:22 11° 296° (WNW) 11:05:32 145.826/435.025
CUBEBUG 1 11 Feb 11:11:12 11:15:06 32° 97° (E) 11:18:58 437.445
BUGSAT 1 11 Feb 11:14:03 11:18:16 88° 76° (ENE) 11:22:27 437.445
DX 1 11 Feb 11:14:45 11:18:56 45° 100° (E) 11:23:04 434.975-435.025
JAS-2 11 Feb 11:19:42 11:23:31 15° 60° (ENE) 11:27:11 435.910
POLYITAN 1 11 Feb 11:21:42 11:25:33 34° 262° (W) 11:29:25 437.675
QB50P2 11 Feb 11:22:18 11:26:07 33° 263° (W) 11:29:57 145.880/145.840
ESTCUBE 1 11 Feb 11:24:46 11:29:19 65° 101° (E) 11:33:48 437.505/2401.250
AO-85 11 Feb 11:25:24 11:29:26 21° 315° (NW) 11:33:32 145.980
Oscar 19 11 Feb 11:31:54 11:34:59 16° 63° (ENE) 11:38:05 437.125/150
DANDE 11 Feb 11:34:29 11:37:14 13° 57° (ENE) 11:39:44 436.750
POPSAT HIP 1 11 Feb 11:52:57 11:55:37 16° 266° (W) 11:58:17 437.405
RS-15 11 Feb 11:56:24 12:07:29 74° 303° (WNW) 12:19:15 29.354- 29.394
NANOSAT C BR1 11 Feb 11:56:46 11:59:14 15° 267° (W) 12:01:40 145.865
DUCHIFAT 1 11 Feb 11:57:18 11:59:50 15° 267° (W) 12:02:21 145.980
Cosmos 2499 11 Feb 12:06:04 12:10:38 15° 298° (WNW) 12:15:16 435.465 / 435.565
QB50P1 11 Feb 12:06:51 12:08:13 11° 268° (W) 12:09:36 145.935-145.965
50 SAT 11 Feb 12:07:31 12:10:50 29° 288° (WNW) 12:14:10 437.505
SRMSAT 11 Feb 12:15:20 12:17:45 13° 185° (S) 12:20:09 437.500
VELOX 1 11 Feb 12:15:44 12:19:50 38° 288° (WNW) 12:23:53 145.980
Gurwin Techsat 1B 11 Feb 12:16:55 12:20:08 17° 63° (ENE) 12:23:22 435.225
CUSAT 1 11 Feb 12:27:04 12:32:33 59° 77° (ENE) 12:36:37 437.405
AISAT 11 Feb 12:33:11 12:36:44 24° 291° (WNW) 12:40:15 437.250
UKube-1 11 Feb 12:36:07 12:39:39 25° 291° (WNW) 12:43:10 .
PCSat 11 Feb 12:39:36 12:39:51 10° 320° (NW) 12:40:08 145.827
SPROUT 11 Feb 12:41:43 12:45:56 64° 285° (WNW) 12:50:09 437.525
TISAT 1 11 Feb 12:43:59 12:47:59 44° 99° (E) 12:51:57 437.305
ITAMSAT 1 11 Feb 12:44:47 12:47:44 16° 63° (ENE) 12:50:43 435.822/435.867
CUBEBUG 1 11 Feb 12:47:58 12:51:10 20° 292° (WNW) 12:54:22 437.445
YUBILEINY 11 Feb 12:49:11 12:55:36 22° 67° (ENE) 13:01:55 435.215
DX 1 11 Feb 12:52:14 12:54:44 15° 295° (WNW) 12:57:12 434.975-435.025
JAS-2 11 Feb 12:59:58 13:07:40 81° 75° (ENE) 13:14:42 435.910
ESTCUBE 1 11 Feb 13:03:54 13:05:32 12° 297° (WNW) 13:07:10 437.505/2401.250
Oscar 19 11 Feb 13:08:41 13:13:47 59° 259° (WSW) 13:18:55 437.125/150
AO-7 11 Feb 13:11:42 13:16:55 18° 52° (NE) 13:22:08 29.400- 29.500
DANDE 11 Feb 13:14:54 13:21:40 88° 262° (W) 13:26:38 436.750
SO-50 11 Feb 13:16:03 13:20:48 55° 56° (NE) 13:25:20 436.795
SWISSCUBE 11 Feb 13:35:30 13:39:47 31° 97° (E) 13:44:01 437.505
Gurwin Techsat 1B 11 Feb 13:54:19 13:59:33 61° 259° (W) 14:04:49 435.225
CUSAT 1 11 Feb 14:12:28 14:13:34 11° 282° (WNW) 14:14:38 437.405
ITUPSAT 1 11 Feb 14:12:56 14:17:45 70° 102° (ESE) 14:22:33 437.325
RS-15 11 Feb 14:13:33 14:22:26 25° 331° (NNW) 14:31:43 29.354- 29.394
BEESAT 11 Feb 14:20:09 14:24:59 85° 102° (ESE) 14:29:46 436.000
TISAT 1 11 Feb 14:21:04 14:23:16 14° 294° (WNW) 14:25:28 437.305
ITAMSAT 1 11 Feb 14:21:31 14:26:38 63° 258° (WSW) 14:31:49 435.822/435.867
ISS 11 Feb 14:38:50 14:42:01 52° 136° (SE) 14:45:11 145.825
YUBILEINY 11 Feb 14:44:27 14:53:17 76° 267° (W) 15:02:02 435.215
Cosmos 2491 11 Feb 14:47:35 14:56:09 66° 92° (E) 15:04:45 435.465 / 435.565
JAS-2 11 Feb 14:48:20 14:53:06 18° 268° (W) 14:57:41 435.910
SO-50 11 Feb 14:58:03 15:00:45 15° 252° (WSW) 15:03:24 436.795
AO-7 11 Feb 15:00:06 15:08:29 85° 71° (ENE) 15:16:53 29.400- 29.500
Cosmos 2504 11 Feb 15:07:19 15:14:57 34° 72° (ENE) 15:22:05 435.465 / 435.565
STARS 11 Feb 15:08:12 15:11:15 18° 94° (E) 15:14:16 437.465
SWISSCUBE 11 Feb 15:13:30 15:17:25 25° 292° (WNW) 15:21:19 437.505
M-CUBED/EXP-1 PRIME 11 Feb 15:28:46 15:32:26 74° 253° (WSW) 15:35:52 437.505
KKS-1 11 Feb 15:29:18 15:33:42 63° 101° (E) 15:38:04 437.445
AUBIESAT-1 11 Feb 15:36:49 15:40:27 72° 253° (WSW) 15:43:53 437.475
MOZHAYETS 4 11 Feb 15:36:56 15:41:00 29° 96° (E) 15:45:02
HORYU 2 11 Feb 15:52:33 15:56:58 86° 259° (W) 16:01:23 437.375
ITUPSAT 1 11 Feb 15:53:03 15:54:58 12° 298° (WNW) 15:56:54 437.325
ISS 11 Feb 16:16:13 16:18:39 19° 333° (NNW) 16:21:06 145.825
CUTE-I 11 Feb 16:16:15 16:18:55 14° 61° (ENE) 16:21:36 437.470
BEESAT 3 11 Feb 16:23:25 16:27:21 61° 117° (ESE) 16:31:17 437.485
Cubesat XI-IV 11 Feb 16:29:29 16:33:08 19° 64° (ENE) 16:36:46 437.490
RS-15 11 Feb 16:34:01 16:41:11 17° 8° (N) 16:48:30 29.354- 29.394
STARS 11 Feb 16:43:43 16:47:41 35° 289° (WNW) 16:51:39 437.465
YUBILEINY 11 Feb 16:45:18 16:48:27 12° 285° (WNW) 16:51:35 435.215
Cosmos 2491 11 Feb 16:46:50 16:53:37 25° 291° (WNW) 17:00:28 435.465 / 435.565
BEESAT 2 11 Feb 16:51:09 16:55:10 80° 118° (ESE) 16:59:12 435.950
AO-7 11 Feb 16:56:46 17:02:04 18° 268° (W) 17:07:24 29.400- 29.500
Cosmos 2504 11 Feb 17:00:29 17:08:28 46° 272° (W) 17:15:56 435.465 / 435.565
KKS-1 11 Feb 17:08:11 17:09:43 12° 297° (WNW) 17:11:14 437.445
MOZHAYETS 4 11 Feb 17:14:16 17:18:02 25° 291° (WNW) 17:21:48
GOMX 1 11 Feb 17:15:16 17:17:53 14° 64° (ENE) 17:20:26 467.674
AIST 2 11 Feb 17:25:47 17:28:29 17° 110° (ESE) 17:31:12 435.215
O/OREOS (USA 219) 11 Feb 17:33:05 17:37:41 77° 69° (ENE) 17:42:17 437.305
CUTE-I 11 Feb 17:53:00 17:58:18 72° 257° (WSW) 18:03:39 437.470
BRITE-PL 11 Feb 17:54:22 17:59:59 65° 75° (ENE) 18:05:29 437.365/2234.400
LilacSat-2 11 Feb 17:57:29 18:01:16 64° 259° (WSW) 18:05:03 437.200
PCSat 11 Feb 17:58:56 18:00:42 11° 42° (NE) 18:02:26 145.827
CUBESAT XI-V 11 Feb 17:59:44 18:04:27 81° 283° (WNW) 18:09:07 437.345
BEESAT 3 11 Feb 18:03:35 18:05:29 13° 315° (NW) 18:07:23 437.485
Cubesat XI-IV 11 Feb 18:07:34 18:12:45 52° 260° (W) 18:17:58 437.490
GONETS M04 11 Feb 18:15:14 18:20:36 17° 64° (ENE) 18:25:56
AO-85 11 Feb 18:17:38 18:22:20 35° 51° (NE) 18:26:40 145.980
DOVE 4 11 Feb 18:21:57 18:26:21 31° 71° (ENE) 18:30:35 437.250
BEESAT 2 11 Feb 18:32:33 18:33:36 11° 317° (NW) 18:34:39 435.950
CUTE 1.7 + AOD 2 11 Feb 18:42:51 18:45:37 17° 67° (ENE) 18:48:24 437.475
SEEDS 11 Feb 18:46:11 18:48:21 14° 66° (ENE) 18:50:32 437.485
RS-15 11 Feb 18:47:56 18:58:52 37° 41° (NE) 19:09:55 29.354- 29.394
GOMX 1 11 Feb 18:49:59 18:55:24 73° 259° (W) 19:00:34 467.674
HO-68 11 Feb 18:54:40 19:01:23 45° 67° (ENE) 19:08:07 435.675
AAUSAT CUBESAT 2 11 Feb 18:56:30 18:57:11 10° 64° (ENE) 18:57:53 437.432
CINEMA 3 11 Feb 19:01:46 19:05:31 25° 70° (ENE) 19:09:10 145.822/145.860
AIST 2 11 Feb 19:02:44 19:06:40 39° 305° (NW) 19:10:37 435.215
CANX-2 11 Feb 19:26:40 19:30:49 64° 75° (ENE) 19:35:01 2200.000
STRAND 1 11 Feb 19:30:06 19:35:17 85° 288° (WNW) 19:40:26 437.568
BRITE-PL 11 Feb 19:35:21 19:38:46 16° 269° (W) 19:42:09 437.365/2234.400
PCSat 11 Feb 19:39:39 19:45:05 71° 61° (ENE) 19:50:28 145.827
ZACube-1 11 Feb 19:42:49 19:44:05 11° 65° (ENE) 19:45:22 437.345
FUNcube-1 11 Feb 19:50:01 19:51:58 13° 66° (ENE) 19:53:55 145.935
AO-85 11 Feb 19:58:30 20:02:40 27° 250° (WSW) 20:06:31 145.980
DOVE 4 11 Feb 19:59:42 20:03:59 27° 264° (W) 20:08:07 437.250
COMPASS 1 11 Feb 20:01:24 20:05:32 78° 76° (ENE) 20:09:43 437.405
Cosmos 2499 11 Feb 20:02:17 20:09:46 35° 72° (ENE) 20:16:42 435.465 / 435.565
GONETS M04 11 Feb 20:09:47 20:18:39 89° 82° (E) 20:27:31
PRISM 11 Feb 20:15:13 20:19:24 83° 286° (WNW) 20:23:32 437.425
CUTE 1.7 + AOD 2 11 Feb 20:17:18 20:21:10 35° 262° (W) 20:25:04 437.475
Oscar 11 11 Feb 20:17:23 20:21:20 38° 72° (ENE) 20:25:20 145.826/435.025
SEEDS 11 Feb 20:19:41 20:23:40 44° 261° (W) 20:27:42 437.485
UWE-3 11 Feb 20:26:39 20:30:48 54° 74° (ENE) 20:34:53 435.000/436.395/437.385
AAUSAT CUBESAT 2 11 Feb 20:28:04 20:32:08 61° 259° (W) 20:36:15 437.432
CUBEBUG 2 11 Feb 20:30:20 20:34:40 86° 76° (ENE) 20:38:54 437.445
CINEMA 3 11 Feb 20:38:39 20:42:34 27° 263° (W) 20:46:21 145.822/145.860
HO-68 11 Feb 20:42:53 20:49:10 32° 263° (W) 20:55:29 435.675
AIST 1 11 Feb 20:58:47 21:02:36 29° 77° (ENE) 21:06:22
RS-15 11 Feb 21:00:18 21:12:28 75° 245° (WSW) 21:24:43 29.354- 29.394
ISS 11 Feb 21:08:15 21:11:13 32° 33° (NNE) 21:14:09 145.825
ZACube-1 11 Feb 21:15:46 21:19:54 56° 260° (W) 21:24:00 437.345
HUMSAT D 11 Feb 21:15:54 21:19:38 37° 73° (ENE) 21:23:24 437.325/437.525
FUNcube-1 11 Feb 21:23:46 21:27:49 47° 261° (W) 21:31:50 145.935
DELFI C3 11 Feb 21:24:49 21:28:45 62° 260° (W) 21:32:43 145.870
PCSat 11 Feb 21:25:10 21:27:48 14° 257° (WSW) 21:30:26 145.827
VELOX 1 11 Feb 21:36:58 21:39:05 13° 64° (ENE) 21:41:12 145.980
UNISAT 6 11 Feb 21:46:31 21:49:54 22° 95° (E) 21:53:19 437.425
